sat.trackr.live / text

‹ back to catalog

STARLINK-2537

NORAD 48301 · 2021-036AB

PAYLOAD ACTIVE UNKNOWN

§ Identity

Operator
Country
US
Launch date
2021-04-29
Launch site
AFETR
Launch vehicle
Mass (kg)
RCS (m²)

Purposes: comms

External: N2YO · Heavens-Above · Gunter

§ Orbital elements

Epoch: 2026-05-25T02:51:38.427264Z

Period
94.01 min
Inclination
53.1617°
Eccentricity
0.0001271
Mean motion
15.31706012 rev/d
Perigee alt
469.9 km
Apogee alt
471.6 km
Semi-major
6,848.9 km
B*
2.8960e-5
RAAN
95.7004°
Arg perigee
85.4192°
Mean anomaly
274.6954°
Rev number
27,988

§ Raw data

STARLINK-25371 48301U 21036AB  26145.11919476  .00000534  00000+0  28960-4 0  99942 48301  53.1617  95.7004 0001271  85.4192 274.6954 15.31706012279883

JSON: /api/v1/satellites/48301 · /tle

For live sub-satellite position, see the globe view (requires WebGL).

§ Visibility from observer

Set your observer location to see the next 7 days of passes ≥ 10°. The values pass through the URL so the page stays shareable.

No JS? Fill the form by hand. The geolocation button needs JavaScript.